Wetbulb
50.51 53.55 55.83 57.23 57.39 57.90 58.39 58.67 58.95 59.63 58.22 58.50 61.66 62.17 61.57 62.50 62.46 65.17 65.88 66.40 65.03 64.42 63.38 62.40 63.01 63.74 62.13 62.31 61.52 60.09 58.26 57.88 57.14 55.98 56.72 57.14 57.06 58.20 58.67 60.56 62.15 61.87 62.10
50.64 53.47 55.32 56.42 56.95 57.66 58.96 59.72 60.14 60.28 57.81 58.28 59.97 62.17 62.66 62.84 63.73 63.65 64.36 65.54 64.06 64.14 63.00 62.37 62.14 61.94 62.32 60.48 60.77 60.03 58.83 58.47 58.31 56.13 55.77 53.98 55.13 56.14 58.47 60.13 60.38 60.59 61.06
49.62 52.44 54.06 55.49 56.76 57.59 58.80 59.91 60.05 60.08 58.08 57.78 59.47 61.14 61.94 62.35 61.72 60.98 61.95 63.60 63.95 63.18 62.84 62.53 62.31 61.65 61.82 59.90 60.15 60.00 59.45 56.64 58.04 57.89 55.98 52.79 50.97 54.45 55.27 57.37 58.98 59.06 59.56
50.19 52.71 53.78 54.87 56.20 57.88 59.71 59.46 59.56 59.98 59.44 57.68 58.52 58.81 58.62 59.05 61.09 61.82 62.75 62.43 62.43 62.20 62.63 61.32 60.89 60.84 61.98 61.16 60.23 60.87 60.08 59.20 56.20 57.43 55.23 55.92 56.53 52.63 51.65 54.91 55.76 57.29 57.61
50.49 52.41 53.79 55.03 57.07 58.28 59.00 59.50 59.33 59.56 58.55 58.94 58.79 59.09 58.76 59.90 60.82 60.40 60.54 60.33 61.01 61.88 62.53 62.05 61.83 62.28 61.89 61.62 60.42 59.97 59.47 58.69 57.53 56.61 52.51 54.50 54.08 55.33 53.75 51.18 52.79 54.11 55.34
51.41 53.09 54.71 56.44 56.91 58.14 58.72 58.22 58.23 58.69 59.07 58.75 59.32 59.48 59.23 58.06 58.44 58.98 58.23 59.55 60.32 62.01 61.82 62.27 62.51 62.92 62.63 62.08 61.31 60.44 59.85 58.80 58.38 57.78 55.21 54.96 54.53 52.70 53.19 51.95 52.44 53.54 51.92
51.67 51.98 52.94 54.90 55.77 56.50 58.09 57.64 58.41 58.02 58.49 58.88 58.84 58.15 58.76 57.95 59.34 59.53 58.91 58.52 58.37 58.95 60.62 61.39 61.28 63.13 63.17 62.61 62.20 60.83 59.51 58.82 58.13 57.54 54.95 55.51 54.94 54.47 53.10 53.96 51.14 51.79 51.03
51.28 51.12 53.48 54.65 55.46 56.09 57.35 56.77 57.40 57.72 57.97 57.52 57.38 56.91 57.36 57.51 57.89 57.97 57.28 59.06 59.97 59.95 60.43 59.63 61.06 61.58 62.08 61.90 61.44 59.77 59.21 58.69 58.48 57.25 54.77 56.00 55.46 54.09 55.22 53.17 50.50 48.53 50.23
49.71 52.33 53.61 54.35 54.86 55.52 56.62 56.74 56.66 57.84 58.26 57.61 57.10 56.88 55.86 55.94 56.14 56.50 56.61 57.31 57.35 58.08 59.07 59.83 59.48 60.39 61.86 61.17 60.91 59.73 58.40 58.33 58.27 56.88 54.30 52.80 51.60 53.30 53.41 53.11 53.68 52.14 49.00
51.33 52.37 52.99 53.50 54.25 55.47 56.78 57.37 57.20 56.34 57.37 57.32 57.10 57.04 56.75 56.77 56.22 56.16 55.06 55.90 56.75 57.80 58.00 58.48 58.70 60.54 60.52 60.59 60.18 59.29 58.05 56.67 54.79 53.89 52.52 51.41 51.09 50.70 51.13 52.59 52.75 52.61 52.36
50.35 51.73 52.62 53.54 54.41 55.21 56.19 56.10 55.66 55.90 55.53 55.47 55.60 55.93 55.32 55.14 54.65 54.41 54.34 54.49 55.48 55.75 56.15 57.11 57.73 58.95 58.47 59.23 59.22 58.06 57.25 54.95 53.39 53.08 52.15 51.02 51.62 50.90 50.82 50.32 51.15 51.25 51.70
50.12 51.75 52.33 52.82 53.54 54.50 55.09 54.80 54.49 54.37 54.61 54.45 54.46 54.16 54.34 53.74 53.64 53.87 54.24 54.43 53.93 53.84 54.29 55.69 57.11 58.02 57.19 57.95 56.88 55.79 55.10 53.61 52.88 52.29 51.86 50.65 51.44 50.31 50.91 51.51 51.69 51.04 50.26
50.32 51.22 50.55 50.68 52.86 53.62 53.77 53.61 53.92 53.54 53.77 53.68 53.96 53.05 52.94 52.47 52.76 53.86 53.31 53.46 53.28 53.19 53.53 54.81 55.59 55.73 55.56 55.24 55.03 54.41 53.99 53.49 53.09 52.52 51.43 50.39 50.35 49.84 49.80 49.90 48.95 48.79 48.81
50.31 50.76 50.81 50.35 52.51 53.69 53.49 53.93 53.22 53.60 53.30 53.03 52.81 51.71 50.99 50.39 50.41 50.77 51.14 52.55 52.57 52.56 52.57 53.12 53.80 53.67 53.43 53.29 53.21 52.57 51.76 51.68 51.56 51.28 51.04 50.92 50.65 49.88 49.49 48.70 47.57 47.14 46.16
49.47 50.39 50.53 49.77 52.08 52.90 53.46 53.69 53.16 52.79 52.54 51.92 50.99 49.08 48.65 49.08 49.45 48.62 49.24 50.08 50.98 51.71 52.39 52.22 52.29 52.43 52.39 52.30 51.63 51.71 51.06 50.57 50.00 50.24 50.39 50.41 51.43 51.89 50.16 47.14 45.48 45.14 43.72
48.99 50.50 50.88 50.77 51.24 52.49 53.15 53.19 52.57 51.66 52.14 50.66 48.74 48.30 48.46 48.55 48.99 48.51 47.73 48.47 49.29 50.41 51.78 52.12 52.49 52.16 52.77 53.69 52.58 50.70 49.20 48.93 48.76 49.03 50.15 50.85 51.16 50.69 50.13 48.60 46.79 44.26 41.90
49.38 50.14 50.99 50.94 51.78 52.61 53.51 52.73 52.11 51.50 50.56 49.06 47.99 47.90 47.79 47.22 47.17 47.52 47.19 47.07 47.46 48.99 49.88 51.35 52.04 52.27 52.84 53.74 52.67 50.75 48.48 48.03 47.75 47.08 46.96 46.99 47.23 46.42 46.73 48.70 48.17 47.09 46.05
49.92 50.54 51.67 51.60 52.42 53.18 53.43 53.35 51.86 50.61 49.60 48.41 47.57 47.60 47.15 46.34 46.51 46.06 45.42 45.55 46.17 46.70 47.29 48.28 49.42 50.10 51.53 52.35 50.80 48.62 44.67 43.74 43.67 43.81 43.81 44.38 44.90 44.81 42.42 41.64 40.67 40.80 41.32
47.80 51.51 52.37 52.70 52.65 52.82 53.40 52.35 51.19 50.04 49.37 47.99 47.15 46.85 46.68 45.73 45.21 44.11 43.58 44.56 45.63 45.68 46.07 47.14 47.28 47.82 48.04 49.51 47.96 45.45 44.85 44.69 44.61 44.98 45.06 44.74 44.73 44.94 43.41 41.58 41.02 41.28 41.79
48.36 51.09 52.16 52.53 52.38 52.52 52.55 51.70 50.61 49.74 49.16 48.13 47.39 46.75 46.54 45.21 43.42 43.54 42.49 42.57 44.19 44.00 45.37 45.56 47.10 47.95 46.92 47.60 46.59 44.97 44.26 43.20 43.34 44.97 45.49 45.92 45.28 45.06 42.89 41.77 41.50 40.53 40.94
50.02 51.80 51.98 51.61 52.25 52.41 52.06 51.09 50.74 50.04 49.75 48.71 47.34 46.22 45.69 43.64 43.57 43.09 43.57 43.65 43.50 43.36 43.45 43.47 44.48 45.41 46.60 46.13 45.73 45.10 43.23 42.41 42.22 42.64 43.29 44.43 44.76 44.17 42.62 41.24 41.45 41.29 40.92
50.15 51.09 50.96 51.08 52.27 52.14 51.81 50.77 50.49 51.35 49.77 47.97 46.32 44.87 43.43 42.47 42.97 42.55 41.54 41.70 42.20 41.59 41.25 41.83 42.10 43.80 45.41 46.31 45.84 44.83 43.83 43.58 41.85 41.28 42.58 43.22 43.69 44.60 44.42 43.07 43.59 43.75 40.89
49.45 50.85 50.77 50.53 51.28 51.69 51.95 50.48 51.50 50.27 48.69 47.00 44.87 43.71 42.32 42.32 42.22 41.54 40.35 39.62 40.88 40.60 39.95 40.25 40.60 40.93 42.73 44.85 45.86 45.24 44.73 44.39 41.52 42.36 42.61 41.92 42.42 42.43 42.81 42.06 40.97 39.21 39.03
49.42 50.48 50.14 49.74 50.11 51.19 51.50 51.71 51.17 50.05 48.34 45.90 43.78 41.86 40.63 40.83 41.08 41.34 41.23 40.01 39.65 39.10 38.74 38.77 39.14 39.47 40.82 42.24 43.37 43.40 44.23 44.34 42.81 40.91 40.31 40.47 40.32 39.89 38.92 38.25 38.78 38.80 38.60
49.44 50.36 49.80 49.59 49.83 51.07 50.83 51.21 50.90 49.60 47.54 45.54 42.96 41.50 42.32 40.89 40.35 41.16 40.68 40.16 40.15 40.56 38.87 39.07 39.51 39.53 39.39 40.89 42.58 42.26 41.30 40.64 39.81 38.03 36.89 36.25 35.90 35.54 35.61 35.75 36.03 36.74 37.00
49.40 49.90 49.86 50.07 50.16 50.73 50.47 50.45 50.61 49.81 47.08 44.27 42.55 41.88 40.45 40.34 40.22 39.49 38.66 40.01 40.19 40.89 40.19 40.58 40.71 40.98 42.73 44.39 43.98 43.10 42.60 41.93 40.26 36.95 35.74 35.07 35.25 34.84 34.75 34.67 34.77 35.74 35.59
MSLP
1009.42 1010.29 1011.05 1011.68 1012.19 1012.54 1012.71 1012.82 1012.99 1013.29 1013.64 1013.91 1014.18 1014.32 1014.37 1014.57 1014.74 1014.51 1014.54 1014.84 1015.25 1015.67 1016.27 1016.81 1017.44 1017.75 1018.16 1018.63 1018.91 1019.34 1019.49 1019.86 1020.72 1020.82 1022.39 1022.49 1023.04 1023.20 1023.38 1023.30 1022.91 1023.28 1023.46
1009.76 1010.47 1011.09 1011.71 1012.11 1012.42 1012.72 1012.91 1013.02 1013.26 1013.41 1013.58 1013.77 1013.87 1014.04 1014.16 1014.24 1014.36 1014.48 1014.70 1014.99 1015.35 1015.78 1016.35 1017.02 1017.52 1017.63 1018.32 1018.95 1019.21 1019.97 1020.58 1020.84 1021.28 1021.54 1022.89 1023.54 1023.53 1023.49 1023.46 1023.35 1023.47 1023.65
1009.35 1010.51 1011.17 1011.67 1012.20 1012.46 1012.67 1012.78 1012.82 1012.87 1013.06 1013.42 1013.74 1013.79 1013.84 1013.81 1013.98 1014.19 1014.36 1014.58 1014.79 1015.14 1015.48 1015.90 1016.31 1016.82 1017.12 1018.12 1018.71 1018.95 1019.27 1020.00 1020.79 1020.70 1021.63 1021.98 1022.34 1023.17 1023.79 1023.73 1023.74 1023.77 1023.79
1009.51 1010.48 1011.16 1011.79 1012.17 1012.49 1012.60 1012.58 1012.63 1012.78 1013.04 1013.34 1013.40 1013.36 1013.37 1013.52 1013.61 1013.72 1014.05 1014.29 1014.49 1014.91 1015.29 1015.62 1016.00 1016.44 1017.17 1018.01 1018.26 1018.86 1019.15 1019.59 1020.26 1020.88 1021.16 1021.10 1021.18 1021.98 1023.21 1023.84 1023.96 1024.06 1024.04
1009.74 1010.47 1011.16 1011.74 1012.19 1012.53 1012.52 1012.55 1012.71 1012.86 1013.00 1013.14 1013.14 1013.18 1013.42 1013.56 1013.75 1013.98 1013.91 1014.32 1014.63 1014.87 1015.27 1015.56 1015.91 1016.33 1017.06 1017.46 1017.88 1018.44 1018.90 1019.26 1019.73 1020.17 1020.79 1020.74 1021.41 1021.68 1021.76 1022.81 1023.72 1024.19 1024.28
1010.08 1010.81 1011.47 1011.88 1012.25 1012.60 1012.69 1012.68 1012.86 1012.98 1013.16 1013.10 1013.15 1013.12 1013.32 1013.65 1013.91 1013.94 1014.19 1014.31 1014.51 1014.71 1014.91 1015.23 1015.53 1015.78 1016.30 1016.94 1017.36 1017.94 1018.56 1019.05 1019.41 1019.96 1020.52 1020.58 1020.73 1021.27 1021.33 1022.25 1023.11 1023.50 1024.11
1010.30 1011.05 1011.52 1011.92 1012.34 1012.56 1012.80 1012.82 1012.87 1013.23 1013.37 1013.33 1013.52 1013.55 1013.60 1013.97 1013.93 1014.03 1014.29 1014.49 1014.58 1014.73 1014.72 1014.86 1015.11 1015.24 1015.44 1015.80 1016.49 1017.39 1018.07 1018.56 1018.93 1019.67 1020.43 1020.60 1020.55 1021.11 1020.93 1021.53 1022.71 1023.31 1024.00
1010.59 1011.00 1011.40 1011.83 1012.31 1012.61 1012.89 1012.96 1013.03 1013.38 1013.41 1013.62 1013.82 1013.85 1013.98 1014.24 1014.42 1014.70 1014.71 1014.68 1014.72 1014.71 1014.71 1014.90 1014.96 1015.05 1015.35 1015.64 1016.08 1016.86 1017.48 1018.06 1018.54 1019.08 1020.12 1020.51 1020.71 1021.09 1020.69 1021.32 1022.31 1023.22 1023.59
1010.84 1011.05 1011.36 1011.82 1012.26 1012.56 1012.85 1013.06 1013.28 1013.44 1013.57 1013.68 1013.90 1014.12 1014.27 1014.28 1014.57 1014.79 1014.88 1014.92 1014.90 1014.86 1014.88 1014.89 1014.95 1015.09 1015.04 1015.46 1015.98 1016.39 1017.07 1017.54 1018.24 1018.84 1019.64 1020.50 1021.19 1021.45 1021.61 1021.22 1021.96 1022.61 1023.10
1011.05 1011.33 1011.51 1011.86 1012.17 1012.48 1012.85 1013.12 1013.40 1013.62 1013.69 1013.78 1013.99 1014.18 1014.28 1014.39 1014.64 1014.77 1014.84 1014.93 1014.90 1014.83 1014.75 1014.83 1014.98 1014.92 1015.06 1015.30 1015.72 1016.10 1016.75 1017.56 1018.01 1018.64 1019.42 1020.46 1021.01 1021.64 1021.92 1021.91 1022.18 1022.47 1022.92
1011.07 1011.51 1011.72 1011.94 1012.16 1012.44 1012.79 1013.09 1013.44 1013.71 1013.76 1013.94 1014.16 1014.31 1014.47 1014.56 1014.68 1014.81 1014.89 1014.87 1014.82 1014.73 1014.63 1014.55 1014.64 1014.71 1014.96 1015.28 1015.73 1016.15 1016.62 1017.53 1018.10 1018.96 1019.58 1020.52 1021.19 1021.92 1022.39 1022.46 1022.61 1022.91 1023.17
1011.06 1011.51 1011.89 1012.12 1012.23 1012.38 1012.79 1013.02 1013.48 1013.80 1013.82 1014.08 1014.32 1014.52 1014.69 1014.79 1014.83 1014.96 1015.02 1014.94 1014.90 1014.66 1014.46 1014.47 1014.44 1014.61 1014.93 1015.27 1015.76 1016.25 1016.85 1017.57 1018.26 1019.06 1019.78 1020.81 1021.30 1022.14 1022.44 1022.47 1022.68 1023.15 1023.55
1010.94 1011.43 1012.02 1012.30 1012.34 1012.32 1012.71 1013.19 1013.39 1013.88 1013.97 1014.20 1014.39 1014.66 1014.87 1015.00 1015.07 1015.07 1015.17 1014.91 1014.86 1014.68 1014.60 1014.33 1014.28 1014.59 1015.10 1015.64 1016.08 1016.44 1017.11 1017.81 1018.54 1019.15 1019.77 1020.65 1021.43 1022.24 1022.53 1022.78 1022.90 1023.05 1023.57
1009.85 1010.69 1011.50 1011.94 1012.30 1012.40 1012.60 1013.08 1013.42 1013.85 1014.10 1014.30 1014.63 1014.86 1015.17 1015.20 1015.34 1015.42 1015.45 1015.26 1015.19 1015.08 1014.80 1014.75 1014.88 1015.17 1015.65 1016.11 1016.58 1017.09 1017.70 1018.26 1018.72 1019.64 1020.47 1020.95 1021.48 1022.03 1022.35 1022.65 1022.99 1023.36 1023.87
1009.90 1010.13 1010.67 1011.30 1011.82 1012.26 1012.57 1012.99 1013.47 1013.88 1014.20 1014.43 1014.88 1015.20 1015.47 1015.50 1015.54 1015.69 1015.75 1015.74 1015.64 1015.53 1015.39 1015.42 1015.68 1015.98 1016.27 1016.68 1017.06 1017.61 1018.08 1018.78 1019.63 1020.30 1020.87 1021.22 1021.71 1022.03 1022.38 1022.80 1023.27 1023.63 1024.17
1009.20 1009.59 1010.05 1010.52 1011.21 1011.80 1012.22 1012.78 1013.37 1013.91 1014.24 1014.56 1015.07 1015.47 1015.69 1015.85 1015.90 1016.05 1016.07 1016.20 1016.31 1016.18 1015.99 1016.03 1016.23 1016.54 1017.04 1017.36 1017.76 1018.18 1018.93 1019.64 1020.10 1020.80 1021.24 1021.72 1022.14 1022.44 1022.74 1022.95 1023.46 1023.76 1024.10
1008.21 1008.66 1009.03 1009.67 1010.33 1011.06 1011.71 1012.42 1013.21 1013.88 1014.32 1014.66 1015.16 1015.67 1015.91 1016.24 1016.34 1016.43 1016.66 1016.82 1016.96 1016.92 1016.85 1016.93 1017.02 1017.34 1017.74 1018.04 1018.40 1018.95 1019.56 1020.18 1020.94 1021.53 1021.96 1022.37 1022.79 1023.06 1023.15 1023.42 1023.87 1024.14 1024.53
1007.66 1007.89 1008.43 1009.17 1009.99 1010.73 1011.50 1012.20 1013.06 1013.78 1014.31 1014.72 1015.21 1015.84 1016.17 1016.56 1016.80 1016.90 1017.28 1017.57 1017.64 1017.74 1017.79 1017.91 1018.13 1018.30 1018.69 1018.96 1019.36 1019.88 1020.56 1021.23 1021.76 1022.14 1022.51 1022.78 1023.47 1023.90 1024.26 1024.68 1024.88 1025.22 1025.43
1006.69 1006.62 1007.29 1008.29 1009.15 1010.08 1011.05 1011.96 1012.88 1013.57 1014.27 1014.65 1015.19 1015.90 1016.37 1016.82 1017.24 1017.61 1017.94 1018.27 1018.32 1018.61 1018.73 1018.90 1019.08 1019.23 1019.80 1020.05 1020.40 1020.79 1021.44 1022.07 1022.85 1023.25 1023.57 1023.75 1024.19 1024.70 1024.90 1025.09 1025.46 1025.63 1025.96
1006.23 1006.20 1006.89 1007.78 1008.49 1009.39 1010.42 1011.51 1012.47 1013.19 1014.03 1014.52 1015.19 1015.94 1016.63 1017.16 1017.74 1018.14 1018.62 1019.15 1019.17 1019.37 1019.55 1019.85 1020.00 1020.18 1020.46 1021.00 1021.36 1021.73 1022.36 1023.00 1023.58 1023.97 1024.18 1024.49 1024.70 1025.00 1025.34 1025.50 1025.67 1025.96 1026.47
1006.31 1006.30 1006.89 1007.46 1008.08 1008.97 1010.12 1011.01 1011.92 1012.69 1013.63 1014.35 1015.26 1016.11 1016.91 1017.59 1018.04 1018.62 1019.09 1019.52 1019.87 1020.20 1020.45 1020.68 1021.10 1021.24 1021.35 1021.82 1022.12 1022.34 1022.79 1023.41 1024.06 1024.48 1024.81 1025.03 1025.30 1025.54 1025.94 1026.30 1026.45 1026.61 1027.00
1006.59 1006.70 1007.12 1007.56 1007.86 1008.57 1009.59 1010.66 1011.32 1012.26 1013.40 1014.27 1015.30 1016.27 1017.18 1017.99 1018.52 1018.88 1019.70 1020.09 1020.34 1020.69 1021.22 1021.49 1021.92 1022.25 1022.29 1022.48 1022.91 1023.34 1023.68 1024.13 1024.49 1025.17 1025.58 1025.77 1025.92 1025.91 1026.13 1026.41 1026.44 1026.80 1027.28
1006.58 1006.84 1007.14 1007.76 1007.99 1008.51 1009.13 1010.18 1011.09 1011.99 1013.26 1014.21 1015.35 1016.41 1017.41 1018.16 1018.90 1019.28 1019.95 1020.46 1020.79 1021.05 1021.65 1022.00 1022.39 1022.81 1023.06 1023.16 1023.39 1023.80 1024.30 1024.84 1025.27 1025.61 1025.96 1026.29 1026.53 1026.73 1026.69 1027.07 1027.31 1027.54 1027.59
1006.55 1006.75 1007.10 1007.64 1007.98 1008.52 1009.19 1009.88 1010.86 1011.82 1012.95 1014.08 1015.34 1016.46 1017.43 1018.42 1019.17 1019.68 1020.05 1020.38 1020.80 1021.28 1021.80 1022.30 1022.79 1023.24 1023.53 1023.76 1024.03 1024.43 1024.84 1025.15 1025.56 1026.20 1026.56 1026.84 1027.09 1027.34 1027.67 1027.82 1027.92 1027.92 1027.91
1006.18 1006.54 1006.86 1007.24 1007.81 1008.35 1009.08 1009.87 1010.64 1011.68 1012.86 1013.87 1015.26 1016.45 1017.40 1018.27 1019.06 1019.62 1019.98 1020.41 1020.95 1021.09 1021.66 1022.45 1022.86 1023.17 1023.70 1024.16 1024.40 1024.70 1025.24 1025.70 1026.18 1026.73 1027.14 1027.44 1027.65 1027.79 1028.00 1028.21 1028.34 1028.40 1028.36
1005.86 1006.29 1006.60 1006.87 1007.40 1008.01 1008.76 1009.65 1010.40 1011.29 1012.56 1013.75 1015.05 1016.15 1017.22 1018.29 1018.86 1019.59 1020.39 1020.91 1021.20 1021.68 1022.13 1022.57 1022.81 1023.43 1023.71 1024.10 1024.54 1025.03 1025.46 1025.82 1026.30 1026.77 1027.15 1027.46 1027.69 1027.92 1028.16 1028.27 1028.40 1028.57 1028.65
Wind_Speed
7 8 9 9 7 5 4 3 3 3 3 2 4 3 3 4 6 7 9 9 8 10 9 6 6 5 6 7 8 7 13 8 4 8 5 7 5 6 3 3 6 7 6
8 9 10 9 8 7 5 4 4 4 4 3 3 3 5 5 5 5 6 8 10 11 10 9 7 5 5 8 9 10 6 5 9 6 5 5 3 2 3 3 4 6 4
13 12 11 9 7 6 5 4 3 3 4 6 3 3 2 2 3 3 5 8 10 11 11 12 9 9 5 6 9 9 10 7 6 10 2 5 4 5 2 3 3 5 4
9 13 12 10 8 6 4 2 1 3 4 6 5 5 3 3 2 2 4 7 10 10 10 12 11 8 7 8 8 8 8 11 9 6 2 1 6 6 6 3 3 3 5
10 14 12 10 7 5 4 3 2 2 2 5 5 4 4 2 2 2 4 7 7 9 12 10 9 11 7 9 10 10 8 10 9 9 3 2 2 2 4 7 6 3 4
13 13 10 10 8 5 4 4 4 4 3 3 4 5 6 5 4 3 4 5 5 7 10 12 12 12 12 13 12 12 12 10 8 6 5 5 5 4 4 3 6 8 4
14 13 12 10 8 7 6 5 6 6 5 6 5 5 5 4 3 4 4 5 5 2 6 8 10 11 12 13 11 13 11 12 10 12 4 2 2 2 3 4 4 3 2
12 13 12 10 9 7 7 7 6 6 7 7 7 6 6 4 4 4 2 1 2 4 5 4 5 10 11 10 9 8 9 11 9 12 7 2 1 2 2 5 4 2 3
11 12 11 10 9 7 7 8 7 6 7 8 6 7 7 7 5 4 3 2 3 3 4 5 5 4 8 11 10 8 11 11 12 10 9 4 3 2 3 5 4 3 2
10 10 10 10 7 8 7 8 7 6 7 7 5 5 6 5 4 4 3 0 3 5 6 6 7 8 6 8 10 8 10 10 7 8 10 7 4 5 2 3 2 1 2
11 10 9 9 9 8 7 8 7 6 6 5 4 5 5 5 5 4 3 2 3 3 4 5 6 7 7 9 8 7 11 11 10 9 12 11 7 4 3 3 3 4 2
11 10 10 10 10 9 8 7 6 5 6 5 5 5 5 5 5 4 4 3 2 1 2 4 6 6 7 8 9 10 11 13 13 11 10 9 6 5 3 3 6 5 2
11 10 9 8 9 9 8 7 7 5 6 5 6 6 5 5 5 5 3 5 5 4 4 3 6 7 8 9 8 11 11 11 12 11 10 10 10 7 4 4 4 4 3
16 15 11 10 9 9 9 8 7 6 6 6 6 6 5 6 5 6 4 7 5 5 6 7 8 10 10 10 10 11 10 10 10 10 9 8 7 7 6 5 5 4 4
14 16 14 12 11 10 9 8 8 7 7 8 7 7 5 6 7 6 6 6 6 6 7 9 9 10 9 7 10 10 10 11 11 10 9 8 10 11 8 4 5 5 3
14 16 15 15 14 12 11 9 9 8 7 9 8 6 7 7 8 8 8 7 7 7 8 9 9 10 7 19 19 14 11 10 11 10 9 9 13 13 15 14 10 5 4
13 16 18 16 15 14 13 12 11 9 8 9 8 7 8 7 8 9 9 9 8 8 9 10 10 11 11 20 21 20 10 11 10 10 9 9 8 9 9 15 15 14 12
11 15 14 16 15 14 13 12 12 10 9 10 9 8 8 8 9 10 10 9 8 9 9 10 11 11 11 21 22 21 11 10 10 9 10 11 10 10 10 10 11 10 10
11 12 15 16 15 15 15 14 13 11 10 11 10 9 9 9 9 10 10 8 9 9 9 10 11 14 12 21 21 17 13 14 13 12 11 11 10 11 11 10 10 10 10
9 10 14 16 17 16 16 16 14 12 12 11 10 9 8 9 10 10 9 6 9 8 8 11 12 17 15 19 20 16 11 13 10 11 12 14 10 10 8 7 7 8 7
9 9 14 15 16 17 16 15 15 14 11 11 11 10 9 10 11 10 10 10 10 11 11 12 10 12 13 14 18 17 11 10 9 9 8 7 12 11 9 6 4 6 6
3 10 12 14 15 17 16 15 15 13 13 13 12 11 10 9 8 13 10 10 11 11 10 11 9 8 10 16 17 18 16 14 11 9 8 9 12 12 12 7 9 11 6
6 9 11 13 15 16 16 16 13 15 14 14 13 12 10 11 10 12 11 9 9 9 8 8 8 7 7 9 18 18 19 17 10 8 12 13 12 12 10 12 10 7 3
6 9 12 13 13 14 14 14 15 16 16 15 13 12 11 12 10 8 8 8 8 8 8 8 8 7 6 7 8 9 11 15 12 13 9 11 11 11 8 7 6 4 4
5 9 11 14 15 15 14 15 16 16 14 14 13 12 10 11 10 8 8 7 6 7 9 7 8 9 8 7 11 11 8 8 10 9 5 4 4 5 4 4 4 3 3
4 9 11 13 16 16 15 15 17 17 16 14 11 10 9 9 9 9 7 6 8 10 9 13 10 5 11 17 17 16 17 16 14 4 4 4 4 4 3 3 3 3 3
Wind_Direction
219 192 168 153 150 153 161 177 213 223 173 152 187 202 204 192 208 216 214 203 189 181 171 162 174 180 174 163 155 143 134 114 111 95 97 74 74 98 93 155 119 117 113
183 171 160 154 160 151 156 186 218 220 196 185 182 184 186 200 204 203 216 212 201 190 171 162 168 187 153 152 159 151 143 138 164 142 129 142 128 90 102 131 137 138 137
186 169 160 154 147 155 165 196 231 233 202 191 166 147 137 120 155 186 206 201 187 182 173 169 170 157 139 175 172 166 166 154 167 147 217 137 171 141 144 166 173 167 165
166 161 155 152 155 159 164 153 205 219 189 182 188 190 177 182 178 183 200 196 191 185 178 180 176 166 179 178 168 173 173 157 165 177 298 145 136 171 166 174 191 200 188
160 155 154 149 148 150 137 92 88 107 165 183 185 167 172 168 145 185 165 175 172 180 175 184 176 182 176 195 171 171 174 175 169 185 153 106 118 169 143 169 179 202 204
143 141 137 137 133 132 118 101 107 68 78 125 153 171 165 170 173 149 170 163 169 191 194 190 197 194 190 188 181 180 178 175 174 178 169 178 166 179 143 131 175 195 183
140 142 144 141 136 134 121 116 104 90 91 96 93 101 122 170 167 165 182 166 174 204 199 193 200 198 193 199 180 182 179 181 176 181 181 155 109 267 129 123 137 171 151
150 151 150 141 134 131 126 118 110 114 105 100 99 91 87 82 72 52 25 282 211 214 199 203 201 206 201 205 189 181 181 183 188 176 166 158 58 320 192 129 134 135 171
157 152 147 145 142 134 127 124 120 115 117 116 108 111 112 113 121 127 138 210 229 224 226 222 216 240 198 189 181 184 182 179 187 175 150 121 105 45 329 104 117 124 179
157 153 152 148 145 137 131 117 115 120 114 112 113 121 121 120 106 83 61 8 230 224 213 208 209 217 198 191 189 171 169 164 145 136 124 110 91 77 48 66 110 131 211
168 166 160 153 146 137 134 122 115 131 110 103 114 113 104 95 88 78 48 10 322 271 229 222 214 201 178 178 156 155 156 146 124 128 128 114 117 112 135 145 144 142 146
174 175 167 161 157 146 139 126 124 122 109 111 106 96 93 90 89 87 79 75 78 45 248 229 216 176 155 154 150 141 139 137 132 127 120 126 118 119 125 101 117 115 147
174 172 172 179 176 151 146 151 134 127 121 119 113 100 99 92 79 76 46 73 54 56 53 71 107 110 116 114 116 124 122 121 129 127 120 128 128 126 116 120 109 77 65
176 179 180 186 188 165 157 157 135 135 132 119 109 100 91 90 81 71 42 59 47 67 77 65 88 97 100 102 107 105 106 104 99 103 116 120 121 138 136 108 95 101 95
189 190 185 186 186 173 162 153 138 138 139 122 110 104 103 97 96 87 78 62 49 47 73 82 82 85 89 96 97 100 101 103 97 93 97 99 117 116 113 115 102 98 92
203 198 194 188 184 177 167 159 149 143 142 123 116 118 105 99 96 87 77 73 58 49 71 76 84 88 94 109 109 106 101 96 101 103 90 84 88 91 95 96 103 121 120
206 200 198 194 184 178 166 164 155 145 141 128 122 119 111 104 96 92 80 74 71 65 60 71 80 85 92 101 102 98 91 93 94 98 100 95 86 80 84 89 88 83 80
215 206 195 193 183 169 167 154 151 146 146 134 127 126 118 108 99 94 89 79 77 78 78 75 78 83 90 98 97 95 92 92 87 91 98 101 100 99 102 99 89 80 71
278 217 191 182 171 165 160 154 154 145 152 143 135 133 126 116 107 95 92 83 88 82 84 93 99 101 100 106 105 100 96 94 92 92 92 96 103 108 105 106 109 103 101
301 185 175 173 168 162 155 155 158 153 162 149 140 129 127 122 117 114 105 94 96 93 93 91 96 103 107 110 109 107 108 105 103 97 96 93 99 105 110 116 125 121 120
301 169 166 174 171 157 156 158 159 165 157 139 133 128 124 125 125 116 117 114 106 103 98 93 88 93 103 109 109 109 106 106 101 100 95 89 89 92 100 115 135 136 139
276 167 169 177 166 160 160 162 164 152 146 138 133 129 126 132 129 123 119 116 115 110 106 106 97 92 103 110 111 110 112 120 113 107 102 99 96 90 96 114 122 137 125
262 181 169 176 171 167 166 162 160 146 145 138 135 132 127 133 135 131 130 122 125 125 122 119 115 107 99 109 114 114 114 111 106 111 103 99 94 78 80 77 77 83 94
243 183 167 177 173 172 168 160 153 148 147 140 138 133 134 134 134 137 141 142 144 136 135 131 123 116 114 114 119 119 122 116 105 103 98 97 94 86 85 80 69 67 69
251 189 179 181 182 170 164 157 153 150 149 142 140 137 139 144 147 152 156 154 150 153 148 142 141 142 141 145 140 136 130 126 124 115 108 102 96 99 94 88 76 71 71
228 195 186 180 181 173 162 159 156 154 149 143 143 147 140 151 151 148 132 131 144 140 124 144 145 139 136 148 143 138 137 136 135 109 120 115 110 107 103 91 80 70 61